IW9GDC-13 Weather Reports


Display with metric or nautical units.
time (UTC)temp
F
wind
direction
speed
MPH
gust
MPH
rain 1hr
in
rain 24hr
in
rain mn
in
humidity
%
barometer
mb
20260904123516 91 270 5.0 11.0 0.00 0.00 0.00 52 1017.7
20260904123056 90 270 4.0 9.0 0.00 0.00 0.00 55 1017.8
20260904122517 90 270 3.0 10.0 0.00 0.00 0.00 53 1017.8
20260904122015 89 293 6.0 13.0 0.00 0.00 0.00 55 1017.7
20260904121515 89 293 6.0 13.0 0.00 0.00 0.00 55 1017.8
20260904121035 89 293 7.0 12.0 0.00 0.00 0.00 56 1017.9
20260904120515 89 270 10.0 17.0 0.00 0.00 0.00 57 1018.0
20260904120016 88 270 10.0 17.0 0.00 0.00 0.00 57 1018.0
20260904115515 89 270 9.0 18.0 0.00 0.00 0.00 55 1017.9
20260904115015 89 270 7.0 13.0 0.00 0.00 0.00 55 1018.0
20260904114517 89 270 5.0 13.0 0.00 0.00 0.00 54 1018.0
20260904114058 89 270 9.0 17.0 0.00 0.00 0.00 55 1018.0
20260904113517 89 293 7.0 13.0 0.00 0.00 0.00 55 1018.0
20260904113037 88 270 6.0 14.0 0.00 0.00 0.00 54 1018.0
20260904112517 88 270 7.0 16.0 0.00 0.00 0.00 54 1017.9
20260904112017 89 270 8.0 16.0 0.00 0.00 0.00 54 1017.9
20260904111517 89 270 7.0 14.0 0.00 0.00 0.00 54 1017.9
20260904111017 88 270 8.0 14.0 0.00 0.00 0.00 55 1017.9
20260904110517 89 270 8.0 14.0 0.00 0.00 0.00 55 1017.9
20260904110017 89 248 7.0 17.0 0.00 0.00 0.00 54 1018.0
20260904105518 88 270 6.0 10.0 0.00 0.00 0.00 54 1018.0
20260904105017 88 270 8.0 14.0 0.00 0.00 0.00 54 1018.1
20260904104517 89 270 4.0 15.0 0.00 0.00 0.00 53 1018.1
20260904104017 89 270 5.0 12.0 0.00 0.00 0.00 53 1018.0
20260904103517 88 270 4.0 13.0 0.00 0.00 0.00 53 1018.0
20260904103017 88 293 7.0 15.0 0.00 0.00 0.00 53 1017.9
20260904102517 88 293 5.0 10.0 0.00 0.00 0.00 55 1018.1
20260904102017 88 248 6.0 12.0 0.00 0.00 0.00 53 1018.1
20260904101537 89 270 4.0 10.0 0.00 0.00 0.00 51 1018.2
20260904101017 89 270 4.0 10.0 0.00 0.00 0.00 53 1018.3
20260904100517 89 270 5.0 12.0 0.00 0.00 0.00 52 1018.3
20260904100017 89 270 6.0 11.0 0.00 0.00 0.00 53 1018.3
20260904095517 89 315 7.0 16.0 0.00 0.00 0.00 55 1018.2
20260904095017 88 315 4.0 12.0 0.00 0.00 0.00 53 1018.1
20260904094517 88 293 8.0 15.0 0.00 0.00 0.00 53 1018.1
20260904094017 88 315 7.0 17.0 0.00 0.00 0.00 55 1018.1
20260904093517 88 293 7.0 15.0 0.00 0.00 0.00 54 1018.0
20260904093017 88 270 6.0 11.0 0.00 0.00 0.00 54 1018.0
20260904092517 88 248 4.0 11.0 0.00 0.00 0.00 52 1018.1
20260904092017 88 270 4.0 10.0 0.00 0.00 0.00 51 1018.0
20260904091517 88 0 5.0 12.0 0.00 0.00 0.00 53 1018.1
20260904091040 88 270 4.0 12.0 0.00 0.00 0.00 54 1018.1
20260904090539 87 270 8.0 16.0 0.00 0.00 0.00 52 1018.1
20260904090017 88 270 5.0 12.0 0.00 0.00 0.00 50 1018.0
20260904085517 88 270 7.0 15.0 0.00 0.00 0.00 52 1018.2
20260904085017 87 270 8.0 15.0 0.00 0.00 0.00 53 1018.2
20260904084517 88 315 6.0 12.0 0.00 0.00 0.00 52 1018.2
20260904084017 87 338 5.0 14.0 0.00 0.00 0.00 56 1018.1
20260904083517 86 315 8.0 14.0 0.00 0.00 0.00 56 1018.2
20260904083017 86 270 6.0 14.0 0.00 0.00 0.00 56 1018.1
20260904082517 87 270 4.0 12.0 0.00 0.00 0.00 56 1018.1
20260904082017 87 315 6.0 10.0 0.00 0.00 0.00 56 1018.1
20260904081517 86 293 6.0 12.0 0.00 0.00 0.00 56 1018.1
20260904081017 86 270 6.0 13.0 0.00 0.00 0.00 57 1018.0
20260904080517 86 270 9.0 16.0 0.00 0.00 0.00 57 1018.0
20260904080017 86 315 8.0 15.0 0.00 0.00 0.00 57 1017.9
20260904075517 85 270 6.0 14.0 0.00 0.00 0.00 60 1017.8
20260904075017 85 270 6.0 13.0 0.00 0.00 0.00 62 1017.8
20260904074516 84 270 9.0 15.0 0.00 0.00 0.00 62 1017.8
20260904074017 84 270 11.0 19.0 0.00 0.00 0.00 62 1017.6
20260904073516 84 270 9.0 17.0 0.00 0.00 0.00 62 1017.6
20260904073017 84 270 9.0 16.0 0.00 0.00 0.00 62 1017.4
20260904072516 85 293 6.0 12.0 0.00 0.00 0.00 61 1017.4
20260904072017 84 270 7.0 18.0 0.00 0.00 0.00 62 1017.4
20260904071537 84 293 6.0 17.0 0.00 0.00 0.00 63 1017.3
20260904071016 84 293 7.0 17.0 0.00 0.00 0.00 63 1017.4
20260904070517 84 270 8.0 16.0 0.00 0.00 0.00 64 1017.4
20260904070016 83 270 8.0 17.0 0.00 0.00 0.00 64 1017.2
20260904065517 84 270 9.0 14.0 0.00 0.00 0.00 63 1017.3
20260904065016 83 270 10.0 20.0 0.00 0.00 0.00 63 1017.3
20260904064516 84 270 8.0 16.0 0.00 0.00 0.00 64 1017.3
20260904064016 83 270 8.0 16.0 0.00 0.00 0.00 64 1017.5
20260904063517 83 270 7.0 16.0 0.00 0.00 0.00 64 1017.5
20260904063017 83 315 6.0 12.0 0.00 0.00 0.00 64 1017.5
20260904062517 83 293 7.0 14.0 0.00 0.00 0.00 65 1017.5
20260904062017 83 270 8.0 15.0 0.00 0.00 0.00 65 1017.4
20260904061517 83 270 11.0 17.0 0.00 0.00 0.00 65 1017.4
20260904061016 83 270 10.0 16.0 0.00 0.00 0.00 65 1017.3
20260904060516 83 270 9.0 19.0 0.00 0.00 0.00 65 1017.4
20260904060016 82 270 8.0 17.0 0.00 0.00 0.00 65 1017.2
20260904055516 82 270 9.0 15.0 0.00 0.00 0.00 67 1017.3
20260904055016 82 270 7.0 17.0 0.00 0.00 0.00 67 1017.3
20260904054516 82 293 5.0 12.0 0.00 0.00 0.00 67 1017.3
20260904054016 82 293 7.0 13.0 0.00 0.00 0.00 68 1017.5
20260904053516 81 270 6.0 12.0 0.00 0.00 0.00 68 1017.5
20260904053016 81 270 6.0 15.0 0.00 0.00 0.00 68 1017.4
20260904052516 81 270 8.0 12.0 0.00 0.00 0.00 68 1017.3
20260904052018 81 270 6.0 11.0 0.00 0.00 0.00 68 1017.3
20260904051516 81 293 5.0 14.0 0.00 0.00 0.00 68 1017.3
20260904051016 81 270 4.0 10.0 0.00 0.00 0.00 68 1017.3
20260904050517 81 293 4.0 11.0 0.00 0.00 0.00 68 1017.3
20260904050016 81 270 3.0 9.0 0.00 0.00 0.00 68 1017.2
20260904045516 81 315 2.0 11.0 0.00 0.00 0.00 68 1017.2
20260904045016 81 293 5.0 11.0 0.00 0.00 0.00 67 1017.1
20260904044517 81 270 5.0 13.0 0.00 0.00 0.00 67 1016.9
20260904044016 81 315 2.0 11.0 0.00 0.00 0.00 67 1016.9
20260904043516 82 315 4.0 12.0 0.00 0.00 0.00 66 1016.9
20260904043016 82 203 1.0 5.0 0.00 0.00 0.00 66 1016.8
20260904042516 81 270 2.0 7.0 0.00 0.00 0.00 66 1016.9
20260904042016 81 338 3.0 10.0 0.00 0.00 0.00 67 1017.0
20260904041516 82 248 4.0 8.0 0.00 0.00 0.00 67 1016.9
20260904041056 82 90 2.0 5.0 0.00 0.00 0.00 68 1016.9
20260904040540 82 45 5.0 9.0 0.00 0.00 0.00 67 1016.8
20260904040038 82 248 8.0 18.0 0.00 0.00 0.00 67 1016.8
20260904035516 82 315 6.0 12.0 0.00 0.00 0.00 66 1016.8
20260904035016 82 315 7.0 17.0 0.00 0.00 0.00 67 1016.8
20260904034516 81 315 4.0 11.0 0.00 0.00 0.00 68 1016.8
20260904034016 82 338 5.0 9.0 0.00 0.00 0.00 67 1016.6
20260904033516 82 23 2.0 8.0 0.00 0.00 0.00 66 1016.5
20260904033016 82 270 5.0 14.0 0.00 0.00 0.00 66 1016.6
20260904032516 82 270 6.0 14.0 0.00 0.00 0.00 65 1016.6
20260904032016 82 270 6.0 15.0 0.00 0.00 0.00 66 1016.6
20260904031517 82 293 7.0 13.0 0.00 0.00 0.00 66 1016.6
20260904031016 82 293 6.0 16.0 0.00 0.00 0.00 65 1016.7
20260904030516 82 270 6.0 12.0 0.00 0.00 0.00 64 1016.7
20260904030016 82 315 3.0 14.0 0.00 0.00 0.00 65 1016.7
20260904025516 82 293 7.0 14.0 0.00 0.00 0.00 64 1016.8
20260904025016 82 23 5.0 15.0 0.00 0.00 0.00 64 1016.8
20260904024536 82 68 2.0 4.0 0.00 0.00 0.00 63 1016.8
20260904024016 82 90 2.0 5.0 0.00 0.00 0.00 63 1016.7
20260904023518 82 180 5.0 8.0 0.00 0.00 0.00 63 1016.7
20260904023016 82 270 2.0 6.0 0.00 0.00 0.00 62 1016.7
20260904022516 82 270 3.0 11.0 0.00 0.00 0.00 62 1016.7
20260904022016 82 293 5.0 13.0 0.00 0.00 0.00 62 1016.7
20260904021516 82 248 8.0 15.0 0.00 0.00 0.00 64 1016.8
20260904021036 82 248 3.0 9.0 0.00 0.00 0.00 63 1016.8
20260904020516 81 270 1.0 5.0 0.00 0.00 0.00 64 1016.8
20260904020016 81 135 3.0 9.0 0.00 0.00 0.00 64 1016.8
20260904015516 82 180 3.0 7.0 0.00 0.00 0.00 63 1016.8
20260904015016 82 270 4.0 10.0 0.00 0.00 0.00 62 1016.7
20260904014516 82 293 2.0 6.0 0.00 0.00 0.00 61 1016.7
20260904014056 82 315 6.0 13.0 0.00 0.00 0.00 62 1016.7
20260904013515 81 248 8.0 22.0 0.00 0.00 0.00 63 1016.7
20260904013015 81 225 5.0 8.0 0.00 0.00 0.00 63 1016.8
20260904012536 81 203 3.0 9.0 0.00 0.00 0.00 64 1016.8
20260904012015 81 180 2.0 5.0 0.00 0.00 0.00 63 1016.7
20260904011536 81 225 4.0 9.0 0.00 0.00 0.00 63 1016.7
20260904011015 81 23 2.0 3.0 0.00 0.00 0.00 64 1016.8
20260904010515 81 45 2.0 4.0 0.00 0.00 0.00 64 1016.7
20260904010015 81 45 3.0 5.0 0.00 0.00 0.00 65 1016.6
20260904005516 81 90 1.0 3.0 0.00 0.00 0.00 65 1016.4
20260904005016 82 0.0 4.0 0.00 0.00 0.00 64 1016.4
20260904004516 82 225 2.0 3.0 0.00 0.00 0.00 64 1016.4
20260904004056 82 225 4.0 11.0 0.00 0.00 0.00 59 1016.5
20260904003535 81 315 3.0 10.0 0.00 0.00 0.00 61 1016.5
20260904003015 81 135 1.0 2.0 0.00 0.00 0.00 66 1016.7
20260904002515 81 135 3.0 6.0 0.00 0.00 0.00 65 1016.6
20260904002015 82 203 1.0 3.0 0.00 0.00 0.00 64 1016.6
20260904001538 82 248 4.0 12.0 0.00 0.00 0.00 63 1016.6
20260904001056 81 248 2.0 4.0 0.00 0.00 0.00 65 1016.8
20260904000515 81 225 3.0 5.0 0.00 0.00 0.00 67 1016.8
20260904000015 81 225 3.0 7.0 0.00 0.00 0.00 65 1016.9
20260903235515 81 180 1.0 2.0 0.00 0.00 0.00 66 1016.9
20260903235016 81 248 1.0 2.0 0.00 0.00 0.00 66 1017.0
20260903234515 82 0.0 2.0 0.00 0.00 0.00 66 1017.0
20260903234016 82 0.0 2.0 0.00 0.00 0.00 66 1016.9
20260903233515 82 203 2.0 6.0 0.00 0.00 0.00 65 1017.1
20260903233015 82 158 1.0 4.0 0.00 0.00 0.00 66 1017.2
20260903232515 82 135 3.0 7.0 0.00 0.00 0.00 65 1017.2
20260903232015 82 270 3.0 9.0 0.00 0.00 0.00 64 1017.2
20260903231515 82 270 3.0 6.0 0.00 0.00 0.00 67 1017.2
20260903231017 82 315 5.0 11.0 0.00 0.00 0.00 63 1017.1
20260903230517 82 45 4.0 7.0 0.00 0.00 0.00 64 1017.2
20260903230017 82 45 3.0 6.0 0.00 0.00 0.00 65 1017.2
20260903225517 82 23 6.0 10.0 0.00 0.00 0.00 66 1017.1
20260903225017 82 0 3.0 11.0 0.00 0.00 0.00 66 1017.0
20260903224517 82 180 2.0 8.0 0.00 0.00 0.00 65 1017.0
20260903224037 82 0.0 2.0 0.00 0.00 0.00 67 1017.0
20260903223517 82 225 2.0 9.0 0.00 0.00 0.00 67 1017.0
20260903223017 82 315 5.0 9.0 0.00 0.00 0.00 68 1016.9
20260903222537 81 0 5.0 10.0 0.00 0.00 0.00 70 1017.0
20260903222017 82 248 2.0 6.0 0.00 0.00 0.00 70 1017.1
20260903221517 82 293 3.0 11.0 0.00 0.00 0.00 70 1017.1
20260903221017 82 68 2.0 7.0 0.00 0.00 0.00 68 1017.1
20260903220637 82 45 5.0 11.0 0.00 0.00 0.00 70 1017.1
20260903220017 82 203 2.0 9.0 0.00 0.00 0.00 70 1017.0
20260903215517 82 248 1.0 2.0 0.00 0.00 0.00 70 1017.0
20260903215037 82 158 2.0 5.0 0.00 0.00 0.00 70 1017.1
20260903214537 81 270 2.0 6.0 0.00 0.00 0.00 70 1017.1
20260903214037 81 315 3.0 10.0 0.00 0.00 0.00 71 1017.2
20260903213517 81 293 2.0 8.0 0.00 0.00 0.00 71 1017.2
20260903213017 81 338 1.0 5.0 0.00 0.00 0.00 72 1017.3
20260903212537 81 0 1.0 3.0 0.00 0.00 0.00 72 1017.3
20260903212016 81 338 3.0 8.0 0.00 0.00 0.00 72 1017.4
20260903211517 81 293 2.0 6.0 0.00 0.00 0.00 72 1017.4
20260903211017 81 338 5.0 9.0 0.00 0.00 0.00 72 1017.5
20260903210517 81 315 5.0 10.0 0.00 0.00 0.00 72 1017.4
20260903210017 81 293 3.0 6.0 0.00 0.00 0.00 72 1017.4
20260903205517 81 315 3.0 8.0 0.00 0.00 0.00 72 1017.3
20260903205017 82 338 4.0 8.0 0.00 0.00 0.00 72 1017.3
20260903204516 82 293 3.0 10.0 0.00 0.00 0.00 72 1017.4
20260903204016 82 293 3.0 7.0 0.00 0.00 0.00 72 1017.4
20260903165057 84 90 4.0 9.0 0.00 0.00 0.00 66 1015.4
20260903163016 84 338 6.0 13.0 0.00 0.00 0.00 65 1015.4
20260903162516 85 270 4.0 9.0 0.00 0.00 0.00 65 1015.2
20260903162036 85 113 3.0 11.0 0.00 0.00 0.00 65 1015.3
20260903161516 85 293 3.0 8.0 0.00 0.00 0.00 64 1015.1
20260903161016 86 270 4.0 14.0 0.00 0.00 0.00 63 1015.2
20260903160516 86 293 4.0 10.0 0.00 0.00 0.00 63 1015.2
20260903160016 86 293 4.0 9.0 0.00 0.00 0.00 62 1015.3
20260903155516 86 135 5.0 13.0 0.00 0.00 0.00 62 1015.6
20260903155016 86 0 9.0 17.0 0.00 0.00 0.00 62 1015.7
20260903154516 87 315 4.0 9.0 0.00 0.00 0.00 61 1015.5
20260903154016 87 338 5.0 14.0 0.00 0.00 0.00 60 1015.4
20260903153516 87 90 6.0 15.0 0.00 0.00 0.00 60 1015.4
20260903153016 87 315 4.0 11.0 0.00 0.00 0.00 60 1015.4
20260903152516 87 0 5.0 12.0 0.00 0.00 0.00 60 1015.3
20260903152016 87 0 7.0 14.0 0.00 0.00 0.00 60 1015.4
20260903151516 88 315 5.0 13.0 0.00 0.00 0.00 59 1015.4
20260903151016 87 293 4.0 9.0 0.00 0.00 0.00 60 1015.4
20260903150516 87 315 6.0 13.0 0.00 0.00 0.00 60 1015.4
20260903150016 87 315 7.0 15.0 0.00 0.00 0.00 60 1015.4
20260903145516 87 315 6.0 15.0 0.00 0.00 0.00 60 1015.4
20260903145016 88 270 6.0 17.0 0.00 0.00 0.00 59 1015.4
20260903144536 88 315 5.0 15.0 0.00 0.00 0.00 60 1015.5
20260903144015 88 293 4.0 11.0 0.00 0.00 0.00 59 1015.6
20260903143515 88 0 6.0 11.0 0.00 0.00 0.00 58 1015.6
20260903143016 88 23 6.0 14.0 0.00 0.00 0.00 59 1015.6
20260903142516 88 293 4.0 10.0 0.00 0.00 0.00 59 1015.6
20260903142016 88 315 6.0 14.0 0.00 0.00 0.00 58 1015.6
20260903141515 88 270 5.0 14.0 0.00 0.00 0.00 58 1015.5
20260903141036 88 293 4.0 9.0 0.00 0.00 0.00 59 1015.6
20260903140616 88 0 4.0 12.0 0.00 0.00 0.00 57 1015.8
20260903140016 88 68 5.0 12.0 0.00 0.00 0.00 57 1015.9
20260903135515 88 315 5.0 11.0 0.00 0.00 0.00 57 1016.0
20260903135015 88 338 5.0 12.0 0.00 0.00 0.00 57 1015.9
20260903134516 88 270 7.0 18.0 0.00 0.00 0.00 54 1015.9
20260903134016 88 315 6.0 14.0 0.00 0.00 0.00 55 1015.9
20260903133515 88 315 7.0 19.0 0.00 0.00 0.00 56 1015.9
20260903133015 89 338 5.0 13.0 0.00 0.00 0.00 53 1016.0
20260903132535 89 0 6.0 13.0 0.00 0.00 0.00 55 1016.0
20260903132035 90 270 5.0 11.0 0.00 0.00 0.00 54 1015.9
20260903131515 89 315 4.0 13.0 0.00 0.00 0.00 54 1015.8
20260903131015 89 0 8.0 17.0 0.00 0.00 0.00 53 1015.8
20260903130516 90 293 7.0 12.0 0.00 0.00 0.00 53 1015.8
20260903130015 89 293 7.0 17.0 0.00 0.00 0.00 53 1015.8
20260903125515 90 270 5.0 15.0 0.00 0.00 0.00 52 1015.8
20260903125016 90 293 5.0 16.0 0.00 0.00 0.00 50 1015.8
20260903124515 90 293 6.0 13.0 0.00 0.00 0.00 51 1015.9
20260903124015 90 315 5.0 14.0 0.00 0.00 0.00 52 1015.9